• In Belarus
  • List of Countries
  • For 7 days
  • Water Temperature
  • Satellite Maps
  • Weather Map
  • Weather Widgets
  • user-avatar
    Login

    Hourly Weather Boryspil

    Today, 18 October, Wednesday

    Time Temperature Precipitation Wind Pressure Humidity
    00:00 +10°C° 0 mm 2 mps 756 mmHg 92%
    01:00 +10°C° 0 mm 2 mps 756 mmHg 93%
    02:00 +10°C° 0 mm 2 mps 756 mmHg 93%
    03:00 +10°C° 0 mm 2 mps 755 mmHg 94%
    04:00 +10°C° 0 mm 2 mps 755 mmHg 94%
    05:00 +10°C° 0 mm 3 mps 755 mmHg 95%
    06:00 +11°C° 0 mm 3 mps 755 mmHg 93%
    07:00 +12°C° 0 mm 4 mps 754 mmHg 91%
    08:00 +12°C° 0 mm 4 mps 755 mmHg 86%
    09:00 +14°C° 0 mm 4 mps 754 mmHg 80%
    10:00 +17°C° 0 mm 4 mps 754 mmHg 73%
    11:00 +18°C° 0 mm 4 mps 754 mmHg 66%
    12:00 +20°C° 0 mm 4 mps 753 mmHg 62%
    13:00 +21°C° 0 mm 4 mps 753 mmHg 59%
    14:00 +21°C° 0 mm 4 mps 753 mmHg 56%
    15:00 +20°C° 0 mm 4 mps 753 mmHg 61%
    16:00 +19°C° 0 mm 3 mps 752 mmHg 66%
    17:00 +18°C° 0 mm 3 mps 752 mmHg 71%
    18:00 +17°C° 0 mm 3 mps 752 mmHg 74%
    19:00 +16°C° 0 mm 3 mps 752 mmHg 76%
    20:00 +14°C° 0 mm 3 mps 752 mmHg 78%
    21:00 +14°C° 0 mm 3 mps 752 mmHg 80%
    22:00 +14°C° 0 mm 3 mps 752 mmHg 81%
    23:00 +13°C° 0 mm 3 mps 751 mmHg 82%

    Tomorrow, 19 October, Thursday

    Time Temperature Precipitation Wind Pressure Humidity
    00:00 +13°C° 0 mm 3 mps 751 mmHg 83%
    01:00 +14°C° 0 mm 2 mps 751 mmHg 83%
    02:00 +13°C° 0 mm 2 mps 751 mmHg 84%
    03:00 +13°C° 0 mm 2 mps 751 mmHg 86%
    04:00 +13°C° 0 mm 2 mps 751 mmHg 87%
    05:00 +12°C° 0 mm 2 mps 751 mmHg 89%
    06:00 +13°C° 0 mm 1 mps 751 mmHg 87%
    07:00 +13°C° 0 mm 1 mps 752 mmHg 86%
    08:00 +14°C° 0 mm 1 mps 752 mmHg 84%
    09:00 +15°C° 0 mm 1 mps 752 mmHg 79%
    10:00 +16°C° 0 mm 1 mps 752 mmHg 74%
    11:00 +17°C° 0 mm 0 mps 752 mmHg 68%
    12:00 +17°C° 0 mm 0 mps 752 mmHg 65%
    13:00 +18°C° 0 mm 0 mps 752 mmHg 63%
    14:00 +19°C° 0 mm 0 mps 752 mmHg 60%
    15:00 +18°C° 0 mm 0 mps 751 mmHg 64%
    16:00 +19°C° 0 mm 1 mps 751 mmHg 69%
    17:00 +18°C° 0 mm 1 mps 751 mmHg 73%
    18:00 +16°C° 0 mm 1 mps 751 mmHg 76%
    19:00 +15°C° 0 mm 2 mps 752 mmHg 79%
    20:00 +15°C° 0 mm 2 mps 752 mmHg 82%
    21:00 +14°C° 0 mm 2 mps 752 mmHg 83%
    22:00 +14°C° 0 mm 2 mps 752 mmHg 85%
    23:00 +13°C° 0 mm 2 mps 752 mmHg 86%

    Day after tomorrow, 20 October, Friday

    Time Temperature Precipitation Wind Pressure Humidity
    00:00 +13°C° 0 mm 2 mps 752 mmHg 87%
    01:00 +12°C° 0 mm 2 mps 752 mmHg 87%
    02:00 +12°C° 0 mm 2 mps 752 mmHg 88%
    03:00 +10°C° 0 mm 2 mps 752 mmHg 89%
    04:00 +10°C° 0 mm 3 mps 752 mmHg 90%
    05:00 +10°C° 0 mm 3 mps 752 mmHg 90%
    06:00 +10°C° 0 mm 3 mps 753 mmHg 88%
    07:00 +10°C° 0 mm 3 mps 753 mmHg 86%
    08:00 +10°C° 0 mm 3 mps 753 mmHg 84%
    09:00 +11°C° 0 mm 3 mps 754 mmHg 79%
    10:00 +13°C° 0 mm 3 mps 754 mmHg 74%
    11:00 +14°C° 0 mm 3 mps 754 mmHg 68%
    12:00 +14°C° 0 mm 3 mps 754 mmHg 66%
    13:00 +16°C° 0 mm 3 mps 754 mmHg 64%
    14:00 +16°C° 0 mm 3 mps 754 mmHg 62%
    15:00 +14°C° 0 mm 3 mps 754 mmHg 65%
    16:00 +13°C° 0 mm 3 mps 754 mmHg 67%
    17:00 +12°C° 0 mm 3 mps 754 mmHg 69%
    18:00 +12°C° 0 mm 3 mps 754 mmHg 68%
    19:00 +11°C° 0 mm 3 mps 755 mmHg 66%
    20:00 +11°C° 0 mm 3 mps 755 mmHg 64%
    21:00 +10°C° 0 mm 3 mps 755 mmHg 64%
    22:00 +10°C° 0 mm 3 mps 755 mmHg 64%
    23:00 +9°C° 0 mm 3 mps 756 mmHg 64%

    21 October, Saturday

    Time Temperature Precipitation Wind Pressure Humidity
    00:00 +9°C° 0 mm 3 mps 756 mmHg 66%
    01:00 +8°C° 0 mm 3 mps 756 mmHg 68%
    02:00 +7°C° 0 mm 3 mps 756 mmHg 69%
    03:00 +7°C° 0 mm 3 mps 756 mmHg 71%
    04:00 +5°C° 0 mm 3 mps 756 mmHg 72%
    05:00 +5°C° 0 mm 3 mps 756 mmHg 73%
    06:00 +5°C° 0 mm 3 mps 757 mmHg 71%
    07:00 +5°C° 0 mm 3 mps 757 mmHg 70%
    08:00 +5°C° 0 mm 3 mps 758 mmHg 68%
    09:00 +7°C° 0 mm 3 mps 758 mmHg 63%
    10:00 +9°C° 0 mm 3 mps 758 mmHg 57%
    11:00 +10°C° 0 mm 3 mps 758 mmHg 52%
    12:00 +10°C° 0 mm 3 mps 758 mmHg 50%
    13:00 +11°C° 0 mm 3 mps 758 mmHg 47%
    14:00 +12°C° 0 mm 2 mps 758 mmHg 45%
    15:00 +10°C° 0 mm 2 mps 758 mmHg 48%
    16:00 +9°C° 0 mm 2 mps 758 mmHg 52%
    17:00 +8°C° 0 mm 2 mps 758 mmHg 55%
    18:00 +8°C° 0 mm 2 mps 758 mmHg 56%
    19:00 +7°C° 0 mm 2 mps 758 mmHg 57%
    20:00 +6°C° 0 mm 2 mps 758 mmHg 58%
    21:00 +6°C° 0 mm 2 mps 759 mmHg 58%
    22:00 +6°C° 0 mm 2 mps 759 mmHg 58%
    23:00 +6°C° 0 mm 2 mps 759 mmHg 58%

    22 October, Sunday

    Time Temperature Precipitation Wind Pressure Humidity
    00:00 +5°C° 0 mm 2 mps 759 mmHg 59%
    01:00 +5°C° 0 mm 2 mps 759 mmHg 60%
    02:00 +5°C° 0 mm 2 mps 759 mmHg 62%
    03:00 +4°C° 0 mm 2 mps 759 mmHg 63%
    04:00 +4°C° 0 mm 2 mps 759 mmHg 64%
    05:00 +4°C° 0 mm 2 mps 758 mmHg 65%
    06:00 +3°C° 0 mm 3 mps 758 mmHg 64%
    07:00 +4°C° 0 mm 3 mps 758 mmHg 63%
    08:00 +4°C° 0 mm 3 mps 758 mmHg 62%
    09:00 +5°C° 0 mm 4 mps 758 mmHg 57%
    10:00 +7°C° 0 mm 4 mps 758 mmHg 53%
    11:00 +8°C° 0 mm 4 mps 758 mmHg 48%
    12:00 +10°C° 0 mm 4 mps 757 mmHg 46%
    13:00 +10°C° 0 mm 4 mps 757 mmHg 44%
    14:00 +11°C° 0 mm 4 mps 757 mmHg 42%
    15:00 +10°C° 0 mm 4 mps 756 mmHg 44%
    16:00 +9°C° 0 mm 3 mps 756 mmHg 46%
    17:00 +9°C° 0 mm 3 mps 756 mmHg 48%
    18:00 +8°C° 0 mm 3 mps 755 mmHg 48%
    19:00 +7°C° 0 mm 4 mps 755 mmHg 48%
    20:00 +7°C° 0 mm 4 mps 755 mmHg 48%
    21:00 +7°C° 0 mm 4 mps 755 mmHg 47%
    22:00 +7°C° 0 mm 4 mps 755 mmHg 46%
    23:00 +7°C° 0 mm 4 mps 755 mmHg 44%

    23 October, Monday

    Time Temperature Precipitation Wind Pressure Humidity
    00:00 +7°C° 0 mm 4 mps 755 mmHg 44%
    01:00 +7°C° 0 mm 4 mps 754 mmHg 44%
    02:00 +7°C° 0 mm 4 mps 754 mmHg 44%
    03:00 +7°C° 0 mm 4 mps 754 mmHg 46%
    04:00 +6°C° 0 mm 4 mps 754 mmHg 47%
    05:00 +6°C° 0 mm 4 mps 753 mmHg 49%
    06:00 +6°C° 0 mm 4 mps 753 mmHg 51%
    07:00 +6°C° 0 mm 5 mps 753 mmHg 52%
    08:00 +6°C° 0 mm 5 mps 753 mmHg 54%
    09:00 +7°C° 0 mm 5 mps 753 mmHg 51%
    10:00 +8°C° 0 mm 5 mps 753 mmHg 48%
    11:00 +9°C° 0 mm 5 mps 753 mmHg 45%
    12:00 +10°C° 0 mm 5 mps 753 mmHg 44%
    13:00 +11°C° 0 mm 4 mps 753 mmHg 43%
    14:00 +12°C° 0 mm 4 mps 752 mmHg 42%
    15:00 +11°C° 0 mm 4 mps 752 mmHg 45%
    16:00 +10°C° 0 mm 3 mps 753 mmHg 48%
    17:00 +9°C° 0 mm 3 mps 753 mmHg 51%
    18:00 +9°C° 0 mm 3 mps 753 mmHg 51%
    19:00 +9°C° 0 mm 3 mps 753 mmHg 51%
    20:00 +8°C° 0 mm 3 mps 753 mmHg 51%
    21:00 +8°C° 0 mm 3 mps 753 mmHg 51%
    22:00 +8°C° 0 mm 3 mps 753 mmHg 51%
    23:00 +8°C° 0 mm 3 mps 754 mmHg 51%
    Show more